Hondo, TX

11:21 PM CDT on April 19, 2018 (GMT -0500)
Hondo Municipal

Weather History for KHDO - May, 2014

Change the Weather History Date:

Monday, May 12, 2014

  Actual Average Record
Temperature  
Mean Temperature 81 °F -  
Max Temperature 93 °F 85 °F 97 °F (2000)
Min Temperature 69 °F 63 °F 50 °F (2006)
Cooling Degree Days 16    
Growing Degree Days 31 (Base 50)    
Moisture  
Dew Point 70 °F    
Average Humidity 73    
Maximum Humidity 90    
Minimum Humidity 49    
Precipitation  
Precipitation 1.11 in - - ()
Sea Level Pressure  
Sea Level Pressure 29.80 in    
Wind  
Wind Speed 15 mph (ESE)    
Max Wind Speed 24 mph    
Max Gust Speed 30 mph    
Visibility 7 miles    
Events Rain , Thunderstorm    
Averages and records for this station are not official NWS values.
T = Trace of Precipitation, MM = Missing Value Source: NWS Daily Summary

Daily Weather History Graph

Daily Weather History Graph

Search for Another Location

Airport or City:

Astronomy

May. 12, 2014 Rise Set
Actual Time 6:46 AM CDT 8:20 PM CDT
Civil Twilight 6:20 AM CDT 8:45 PM CDT
Nautical Twilight 5:49 AM CDT 9:16 PM CDT
Astronomical Twilight 5:17 AM CDT 9:49 PM CDT
Moon 6:28 PM CDT (5/12) 5:14 AM CDT (5/12)
Length of Visible Light 14h 25m
Length of Day
13h 33m
Waxing Gibbous, 95% of the Moon is Illuminated
May 12
Waxing Gibbous
May 14
Full
May 21
Last Quarter
May 28
New
Jun 5
First Quarter

Hourly Weather History & Observations

Time (CDT) Temp. Heat Index Dew Point Humidity Pressure Visibility Wind Dir Wind Speed Gust Speed Precip Events Conditions
12:29 AM 78.1 °F - 70.0 °F 76% 29.78 in 9.0 mi ESE 12.7 mph - N/A   Mostly Cloudy
12:51 AM 78.1 °F - 70.0 °F 76% 29.74 in 9.0 mi SE 17.3 mph - N/A   Overcast
1:51 AM 78.1 °F - 71.1 °F 79% 29.74 in 7.0 mi SE 15.0 mph - 0.00 in   Overcast
2:51 AM 78.1 °F - 71.1 °F 79% 29.74 in 7.0 mi SE 15.0 mph - N/A   Overcast
3:17 AM 78.1 °F - 71.1 °F 79% 29.79 in 7.0 mi SE 17.3 mph - N/A   Overcast
3:49 AM 78.8 °F - 71.6 °F 78% 29.78 in 6.0 mi SSE 15.0 mph - N/A   Haze
3:51 AM 78.1 °F - 72.0 °F 81% 29.73 in 6.0 mi SE 16.1 mph - N/A   Haze
4:51 AM 78.1 °F - 72.0 °F 81% 29.72 in 5.0 mi SE 11.5 mph - N/A   Haze
5:22 AM 78.1 °F - 73.0 °F 84% 29.76 in 6.0 mi SE 12.7 mph - N/A   Haze
5:43 AM 78.1 °F - 73.0 °F 84% 29.76 in 6.0 mi SE 11.5 mph - N/A   Haze
5:51 AM 78.1 °F - 73.0 °F 84% 29.71 in 6.0 mi SSE 10.4 mph - N/A   Haze
6:51 AM 79.0 °F - 73.0 °F 82% 29.72 in 6.0 mi SE 13.8 mph - N/A   Haze
7:51 AM 79.0 °F - 73.0 °F 82% 29.73 in 4.0 mi SSE 17.3 mph - 0.00 in   Haze
8:36 AM 80.1 °F 84.2 °F 73.0 °F 79% 29.82 in 4.0 mi SSE 13.8 mph - N/A   Haze
8:51 AM 80.1 °F 83.8 °F 72.0 °F 76% 29.77 in 4.0 mi SSE 13.8 mph - N/A   Haze
9:51 AM 82.9 °F 88.0 °F 72.0 °F 69% 29.79 in 6.0 mi SE 13.8 mph - 0.00 in   Haze
10:51 AM 84.9 °F 90.7 °F 72.0 °F 65% 29.80 in 7.0 mi SSE 12.7 mph - N/A   Overcast
11:23 AM 89.1 °F 96.0 °F 72.0 °F 57% 29.83 in 7.0 mi SE 17.3 mph 25.3 mph N/A   Partly Cloudy
11:51 AM 88.0 °F 94.7 °F 72.0 °F 59% 29.79 in 8.0 mi SSE 13.8 mph - N/A   Mostly Cloudy
12:43 PM 90.0 °F 96.4 °F 71.1 °F 54% 29.85 in 9.0 mi SSE 13.8 mph - N/A   Mostly Cloudy
12:51 PM 91.0 °F 98.2 °F 72.0 °F 53% 29.80 in 8.0 mi South 11.5 mph 19.6 mph N/A   Mostly Cloudy
1:51 PM 89.1 °F 96.0 °F 72.0 °F 57% 29.79 in 8.0 mi East 9.2 mph - N/A   Overcast
2:51 PM 90.0 °F 96.4 °F 71.1 °F 54% 29.77 in 10.0 mi SE 17.3 mph 24.2 mph 0.00 in   Overcast
3:51 PM 93.0 °F 100.1 °F 71.1 °F 49% 29.74 in 10.0 mi SE 19.6 mph - N/A   Mostly Cloudy
4:51 PM 91.0 °F 97.6 °F 71.1 °F 52% 29.72 in 10.0 mi SE 17.3 mph 24.2 mph N/A   Mostly Cloudy
5:51 PM 91.0 °F 96.6 °F 70.0 °F 50% 29.71 in 10.0 mi SE 16.1 mph - N/A   Scattered Clouds
6:51 PM 88.0 °F 92.9 °F 70.0 °F 55% 29.71 in 10.0 mi SE 16.1 mph - N/A   Mostly Cloudy
7:51 PM 86.0 °F 91.5 °F 71.1 °F 61% 29.72 in 10.0 mi SE 18.4 mph - N/A   Overcast
8:51 PM 84.0 °F 89.6 °F 72.0 °F 67% 29.74 in 10.0 mi ESE 18.4 mph 25.3 mph N/A   Scattered Clouds
9:08 PM 82.9 °F 88.0 °F 72.0 °F 69% 29.78 in 10.0 mi SE 16.1 mph 26.5 mph N/A Thunderstorm Scattered Clouds
9:26 PM 82.4 °F 87.2 °F 71.6 °F 70% 29.81 in 10.0 mi ESE 16.1 mph 24.2 mph N/A Thunderstorm Thunderstorm
9:47 PM 78.8 °F - 62.6 °F 57% 29.87 in 10.0 mi NNE 24.2 mph 29.9 mph N/A Thunderstorm Thunderstorm
9:51 PM 77.0 °F - 63.0 °F 62% 29.82 in 10.0 mi NNE 21.9 mph 29.9 mph N/A Thunderstorm Thunderstorm
9:54 PM 75.9 °F - 64.0 °F 67% 29.88 in 10.0 mi NNE 18.4 mph 29.9 mph 0.00 in Rain , Thunderstorm Light Thunderstorms and Rain
10:08 PM 70.0 °F - 64.9 °F 84% 29.91 in 2.0 mi North 18.4 mph - 0.16 in Rain , Thunderstorm Heavy Thunderstorms and Rain
10:12 PM 69.8 °F - 66.2 °F 88% 29.92 in 1.0 mi North 12.7 mph 23.0 mph N/A Rain , Thunderstorm Heavy Thunderstorms and Rain
10:15 PM 69.1 °F - 66.0 °F 90% 29.92 in 0.8 mi North 13.8 mph - 0.46 in Rain , Thunderstorm Heavy Thunderstorms and Rain
10:22 PM 69.1 °F - 66.0 °F 90% 29.91 in 1.0 mi NNE 19.6 mph - 0.64 in Rain , Thunderstorm Heavy Thunderstorms and Rain
10:33 PM 69.1 °F - 66.0 °F 90% 29.88 in 1.8 mi North 11.5 mph - 0.78 in Rain , Thunderstorm Heavy Thunderstorms and Rain
10:37 PM 69.1 °F - 66.0 °F 90% 29.87 in 2.5 mi North 13.8 mph - 0.82 in Rain , Thunderstorm Heavy Thunderstorms and Rain
10:41 PM 69.1 °F - 66.0 °F 90% 29.86 in 3.0 mi NNE 11.5 mph - 0.85 in Rain , Thunderstorm Heavy Thunderstorms and Rain
10:51 PM 69.1 °F - 66.0 °F 90% 29.80 in 3.0 mi NE 11.5 mph - 0.92 in Rain , Thunderstorm Heavy Thunderstorms and Rain
11:51 PM 69.1 °F - 64.9 °F 87% 29.88 in 7.0 mi East 9.2 mph - 0.19 in Rain , Thunderstorm Thunderstorms and Rain
11:56 PM 69.1 °F - 64.9 °F 87% 29.92 in 7.0 mi East 6.9 mph - 0.01 in Rain , Thunderstorm Thunderstorms and Rain